Wind_Speed
25 22 23 22 19 15 14 16 18 19 21 21 22 20 24 28 27 26 27 27 28 29 32 31 33 32 31 26 30 31 20 16 17 17 18 21 21 19 21 19 21 23 21 22 26 27 28
29 28 27 27 22 18 18 18 19 19 19 20 20 22 24 27 29 28 28 27 28 28 30 31 30 32 30 28 28 28 29 21 16 18 19 18 18 19 20 20 22 23 24 24 26 26 28
29 29 29 30 27 24 23 23 23 23 23 23 24 25 26 28 29 31 31 27 29 30 30 29 29 29 31 28 27 28 26 26 22 17 19 22 24 25 25 24 25 26 28 30 32 32 33
30 32 32 33 32 29 27 27 27 29 29 29 30 29 29 29 30 32 33 31 28 29 33 29 28 30 30 30 26 26 25 23 23 26 20 16 23 28 30 30 31 32 34 37 38 38 39
33 34 32 35 36 36 34 33 33 31 31 32 32 33 32 31 32 33 32 34 33 31 32 31 31 28 34 31 30 27 24 23 22 25 24 20 15 17 22 29 35 37 37 40 40 42 42
39 37 36 34 37 41 41 41 41 39 37 39 39 37 37 34 33 33 34 36 34 33 33 30 33 29 32 34 32 30 30 27 27 25 26 25 24 25 24 21 23 30 37 39 40 42 43
44 43 41 40 40 41 43 43 46 47 44 45 46 43 40 37 34 34 36 38 39 35 36 33 31 38 36 34 35 33 30 32 33 33 32 31 30 28 29 25 24 27 34 42 47 49 50
48 47 46 44 44 44 45 45 46 48 50 51 50 48 45 39 37 36 38 42 41 38 37 38 36 38 39 36 36 36 34 34 34 36 36 37 35 32 30 29 33 30 30 35 43 44 48
53 51 51 49 48 48 47 49 50 49 50 51 50 50 46 41 39 40 41 42 42 42 41 40 38 38 40 40 39 37 37 37 38 38 37 39 37 36 35 34 37 36 35 34 36 41 43
55 56 55 53 52 52 54 55 54 52 51 52 52 51 46 43 47 47 46 45 45 44 43 43 42 41 41 41 42 42 41 42 43 42 40 40 40 38 41 43 43 42 42 40 37 38 39
55 54 55 56 54 54 54 53 51 50 48 47 46 46 48 51 52 49 49 48 47 46 43 44 44 44 45 45 44 45 46 46 47 47 48 50 48 48 49 50 50 49 49 45 42 43 44
57 54 53 53 53 53 54 55 54 54 55 54 54 54 55 56 54 53 54 51 49 49 47 47 47 46 47 49 51 51 51 52 52 51 52 56 59 58 57 57 57 55 56 54 49 47 48
63 59 56 55 55 56 57 57 57 58 58 58 56 55 56 56 57 58 57 54 52 54 52 51 50 52 53 54 55 55 55 58 60 61 59 58 59 60 60 61 61 59 60 60 60 58 56
69 65 64 61 62 61 59 60 59 59 59 59 58 55 56 57 59 60 60 56 56 55 55 55 54 54 57 59 56 56 59 61 62 64 62 63 63 66 67 67 63 61 62 67 67 67 61
71 70 68 68 69 66 66 65 64 64 63 64 63 62 60 59 60 61 61 59 60 58 58 58 59 61 66 62 61 62 62 64 68 68 69 69 69 68 70 68 69 68 71 74 75 73 70
76 74 74 73 74 72 71 67 64 65 64 64 63 61 62 61 60 61 63 66 67 64 63 64 66 67 68 69 68 66 65 67 71 74 73 71 72 74 77 77 78 80 78 78 78 78 75
75 75 76 77 78 77 75 73 70 69 69 67 66 67 66 65 65 67 69 69 70 72 71 71 74 71 72 73 76 75 72 72 75 75 76 78 78 77 78 79 79 78 78 79 79 79 80
80 78 76 76 77 78 78 78 78 77 75 72 71 71 73 75 73 74 76 75 76 79 77 74 77 79 80 79 80 79 79 80 81 81 82 83 79 78 78 79 78 78 79 80 78 81 83
90 89 88 87 86 84 84 84 84 82 81 80 79 79 80 81 82 84 83 83 82 85 86 84 85 87 87 85 85 83 85 85 84 85 85 86 84 82 81 82 81 79 81 83 83 83 83
85 88 88 87 86 84 83 84 84 85 87 87 87 86 87 88 88 89 92 90 92 90 92 91 93 95 94 92 94 92 88 86 86 88 89 90 88 86 85 86 86 83 83 85 87 86 89
94 90 90 93 89 90 87 89 90 93 95 96 96 94 95 95 95 96 98 100 99 98 101 100 95 99 101 100 102 101 98 97 96 93 93 96 91 91 87 87 88 85 86 89 91 90 93
101 101 98 96 94 93 94 95 95 99 101 102 100 101 103 104 103 103 104 106 105 104 104 105 108 104 105 108 105 104 103 100 98 95 92 93 92 90 87 89 90 87 87 94 95 93 94
102 104 103 103 101 101 101 100 103 106 107 109 110 109 109 106 107 110 112 112 109 108 110 109 107 106 105 105 100 98 97 94 94 91 92 94 95 96 93 93 93 90 94 97 96 94 91
106 106 104 103 99 101 102 103 102 107 108 107 109 111 110 107 110 107 104 101 100 100 97 98 95 97 92 92 92 92 94 94 93 94 94 95 98 98 95 97 96 96 96 96 94 93 87
98 103 104 102 106 103 100 100 96 96 95 92 92 89 92 90 97 99 89 91 88 87 89 89 91 88 90 91 91 90 92 92 92 90 90 93 97 102 101 99 97 95 93 93 92 87 82
94 90 92 94 97 93 97 93 92 90 86 88 90 87 87 85 86 90 91 90 89 89 90 92 91 93 93 94 95 93 93 92 91 88 92 98 100 100 101 101 95 90 89 88 84 80 83
93 94 91 87 88 91 90 90 89 88 88 92 89 89 89 89 90 92 94 94 96 98 97 95 93 94 96 93 93 94 93 90 93 90 91 92 94 93 92 92 84 87 86 82 80 81 82
89 89 89 87 89 91 92 90 93 90 91 92 93 95 92 93 94 96 98 102 104 104 104 103 101 99 97 95 96 95 93 90 88 87 86 86 86 82 83 83 82 80 79 79 79 82 84
88 86 83 90 90 89 90 92 93 93 93 96 98 99 96 96 96 100 98 99 103 102 104 101 101 97 93 93 92 89 89 84 84 82 82 83 80 79 79 79 78 75 74 75 78 78 80
Wind_Direction
253 259 260 256 267 264 276 287 296 306 317 323 328 342 348 350 347 345 345 348 355 357 2 5 10 12 13 13 6 8 351 308 300 293 281 275 276 275 265 260 258 260 258 251 252 258 263
250 253 254 260 266 261 268 277 282 300 320 333 331 333 340 349 344 341 340 343 344 344 351 353 360 5 5 5 1 10 10 4 316 294 290 282 272 274 274 272 269 266 263 261 262 260 259
249 254 252 257 263 264 266 273 277 290 307 314 326 320 321 334 338 337 338 335 336 336 341 344 345 359 358 359 359 0 2 8 17 353 294 281 279 280 276 270 267 266 268 266 264 265 265
252 257 253 255 257 266 267 272 275 283 296 306 310 314 316 318 324 328 335 332 336 333 332 333 336 342 347 350 351 349 352 353 1 358 3 331 289 274 275 274 274 273 273 270 270 271 270
250 253 257 256 259 264 269 272 277 284 288 293 300 304 305 308 313 317 323 330 326 330 329 326 330 331 336 339 344 339 341 341 341 343 347 353 357 339 300 282 275 275 275 276 276 272 271
250 253 255 257 259 265 269 273 278 281 284 289 296 299 302 303 307 310 314 320 322 318 325 323 324 319 329 326 334 333 330 331 327 331 331 326 325 332 338 323 294 284 278 276 276 273 270
256 257 258 257 257 262 267 272 278 281 282 286 290 291 300 304 304 306 309 313 316 316 316 320 318 317 317 320 321 321 323 321 320 319 318 318 317 320 323 321 320 302 288 273 275 274 274
255 258 260 260 258 260 266 268 274 276 279 283 285 286 293 295 299 302 304 308 310 309 308 312 311 309 310 313 317 316 312 313 310 310 314 312 309 308 311 311 318 317 317 295 284 288 282
257 259 261 262 263 266 268 269 271 274 276 280 283 284 291 291 293 295 300 302 304 304 302 305 308 303 304 306 309 309 305 303 305 304 305 302 302 302 304 305 307 309 307 310 298 295 296
259 260 261 264 266 268 269 271 273 274 275 277 280 284 288 288 293 295 294 298 298 298 298 300 304 302 299 300 301 305 306 303 304 302 302 300 300 300 300 300 304 301 303 307 300 308 308
255 254 260 263 266 269 271 273 274 276 278 280 281 283 287 291 292 292 292 292 292 292 293 294 296 298 295 292 294 296 296 299 301 300 299 303 300 298 299 300 297 296 298 300 303 300 305
254 255 259 262 265 266 267 269 272 275 277 280 282 285 287 288 289 290 290 288 290 291 290 291 290 291 292 292 292 295 293 292 295 298 300 300 300 298 297 297 296 296 295 295 297 298 303
254 255 257 259 261 261 265 267 269 271 274 277 278 280 282 285 287 287 287 287 289 291 291 290 289 292 293 292 293 293 295 296 296 296 293 294 299 297 294 293 293 294 294 293 292 293 299
258 259 260 259 259 260 262 265 267 268 271 272 274 275 277 280 283 284 285 283 287 289 291 290 288 289 289 290 292 291 293 296 297 296 293 295 298 298 297 293 292 292 293 291 291 295 295
263 264 263 262 262 263 265 265 267 269 271 271 272 273 277 279 282 283 281 283 285 287 287 286 286 289 293 290 291 290 291 292 293 294 293 294 295 296 297 294 293 293 293 293 293 293 292
261 260 262 263 263 264 263 265 267 270 271 271 273 275 277 280 282 281 282 284 286 285 286 288 285 287 288 287 290 290 290 289 291 291 291 293 293 294 294 294 291 292 293 292 291 290 291
257 258 260 262 266 267 268 269 271 272 272 273 276 278 279 281 282 282 282 285 286 287 287 288 289 288 287 287 289 291 290 289 289 289 290 291 294 292 293 293 291 290 291 289 288 289 291
254 257 260 261 264 266 267 270 270 271 274 276 277 279 280 278 281 282 283 283 285 285 284 285 286 285 286 284 284 288 289 289 288 289 290 291 294 292 290 291 290 289 290 288 287 290 292
254 257 260 261 262 262 263 265 268 270 272 273 275 275 277 278 278 281 282 283 284 285 286 286 285 284 284 285 286 287 287 288 288 290 291 290 293 291 288 288 287 287 287 286 286 289 290
251 257 258 261 261 262 264 267 267 267 269 270 271 272 274 276 276 278 280 282 281 282 283 285 287 287 287 289 290 289 287 286 287 288 289 290 291 288 287 286 285 285 284 283 286 288 283
248 251 254 256 257 257 260 261 265 266 267 270 271 270 270 272 274 275 277 279 280 281 283 284 285 287 288 288 289 288 288 286 287 288 285 288 286 285 284 283 284 284 283 285 286 285 286
252 255 256 255 258 259 259 260 262 264 267 268 268 271 273 274 273 273 277 279 280 282 282 283 285 288 288 287 287 286 286 285 286 286 283 283 283 281 280 281 280 282 283 281 285 287 289
251 253 256 257 258 259 261 263 264 267 268 270 272 272 272 274 276 276 277 279 281 282 283 284 284 285 284 284 283 283 283 280 281 281 280 283 282 280 280 279 280 283 281 284 286 288 290
252 254 256 258 261 262 264 265 267 269 271 273 275 275 275 276 276 278 279 282 283 282 283 283 282 283 279 278 279 281 281 282 284 284 283 281 281 281 281 281 282 284 285 286 289 290 287
257 257 259 260 261 262 266 268 269 271 268 270 273 275 274 275 274 274 279 280 280 279 278 281 282 280 281 280 278 280 283 285 284 284 282 281 279 279 280 280 282 285 286 286 287 287 283
260 262 262 264 267 269 268 268 269 271 272 276 276 277 278 278 280 281 281 283 283 283 283 282 284 283 282 282 283 283 284 284 282 281 283 280 280 281 283 283 284 286 288 287 286 283 280
259 261 263 266 269 271 272 272 274 278 279 279 281 282 281 282 283 284 287 288 286 285 285 286 286 285 285 286 286 285 283 283 283 283 284 283 283 283 284 284 284 286 286 285 283 281 279
255 258 262 265 266 268 271 273 275 276 277 278 280 280 281 283 283 285 285 286 286 286 287 287 287 287 287 286 284 284 283 283 283 283 283 283 283 284 284 286 285 285 285 285 283 282 282
257 258 263 263 266 268 269 270 273 274 274 275 276 278 281 282 282 284 285 286 287 287 286 287 287 287 287 284 284 285 284 285 284 285 285 285 285 286 286 286 286 286 285 284 283 283 283
Height
10765 10766 10766 10766 10765 10765 10765 10764 10763 10762 10761 10759 10757 10755 10753 10750 10746 10743 10740 10738 10735 10732 10729 10726 10722 10719 10715 10712 10708 10704 10699 10697 10697 10697 10697 10698 10698 10698 10698 10700 10700 10700 10703 10703 10702 10703 10703
10758 10759 10760 10761 10760 10760 10760 10760 10759 10758 10758 10755 10754 10752 10750 10747 10744 10741 10738 10735 10732 10730 10728 10725 10722 10719 10715 10711 10708 10705 10701 10697 10694 10694 10694 10695 10694 10694 10693 10695 10696 10696 10696 10697 10697 10698 10699
10751 10752 10754 10754 10755 10755 10755 10755 10755 10754 10753 10751 10750 10748 10746 10744 10741 10738 10736 10733 10730 10728 10725 10723 10720 10717 10714 10711 10707 10704 10701 10698 10695 10692 10690 10690 10690 10690 10689 10690 10691 10691 10691 10690 10690 10691 10691
10744 10746 10747 10748 10748 10749 10749 10749 10749 10749 10748 10747 10745 10744 10742 10740 10738 10735 10732 10730 10728 10725 10722 10720 10717 10714 10711 10708 10705 10703 10700 10698 10695 10693 10689 10686 10685 10684 10684 10684 10684 10684 10684 10681 10682 10682 10682
10737 10739 10740 10741 10742 10742 10743 10743 10743 10743 10742 10741 10740 10738 10736 10735 10733 10731 10728 10726 10723 10721 10718 10715 10713 10711 10708 10705 10703 10700 10698 10695 10693 10691 10688 10685 10682 10680 10678 10676 10675 10674 10674 10672 10673 10672 10673
10729 10731 10732 10733 10734 10735 10735 10736 10736 10735 10735 10735 10734 10732 10730 10729 10727 10725 10723 10720 10719 10716 10714 10710 10707 10706 10703 10701 10698 10696 10693 10691 10689 10686 10684 10682 10679 10676 10674 10671 10669 10666 10665 10663 10663 10663 10663
10720 10722 10724 10725 10726 10727 10727 10727 10727 10727 10727 10727 10726 10726 10724 10723 10721 10719 10717 10714 10713 10710 10707 10704 10702 10699 10697 10695 10693 10690 10688 10685 10682 10680 10678 10675 10673 10671 10667 10664 10662 10659 10658 10656 10653 10653 10652
10709 10711 10713 10715 10717 10718 10719 10719 10719 10718 10718 10718 10717 10717 10716 10715 10713 10712 10710 10708 10706 10702 10699 10697 10695 10692 10689 10687 10685 10683 10680 10678 10675 10673 10670 10667 10665 10662 10660 10657 10654 10652 10649 10647 10643 10640 10640
10698 10699 10702 10704 10707 10708 10709 10709 10709 10709 10708 10708 10707 10707 10707 10705 10704 10703 10702 10700 10698 10695 10690 10687 10686 10684 10682 10679 10677 10674 10672 10669 10667 10664 10661 10658 10655 10653 10650 10647 10644 10642 10639 10636 10633 10630 10629
10687 10689 10692 10694 10696 10697 10697 10697 10698 10698 10698 10697 10697 10697 10696 10695 10694 10693 10692 10691 10689 10687 10683 10679 10676 10674 10672 10670 10667 10665 10662 10660 10657 10654 10651 10647 10645 10642 10639 10636 10632 10629 10626 10624 10622 10619 10618
10675 10677 10681 10684 10685 10686 10686 10686 10686 10686 10687 10686 10686 10686 10685 10683 10683 10681 10681 10679 10678 10676 10675 10671 10667 10664 10661 10659 10656 10655 10652 10649 10646 10643 10641 10638 10633 10629 10626 10623 10619 10615 10611 10609 10607 10605 10604
10663 10667 10671 10673 10674 10674 10674 10675 10675 10674 10675 10675 10675 10675 10674 10672 10671 10670 10668 10666 10665 10664 10664 10661 10658 10654 10651 10648 10646 10643 10640 10637 10634 10632 10629 10625 10621 10618 10611 10608 10604 10601 10596 10593 10591 10589 10590
10650 10655 10659 10661 10662 10662 10662 10664 10663 10663 10664 10664 10664 10663 10662 10660 10659 10658 10655 10653 10652 10650 10650 10650 10647 10644 10639 10636 10633 10631 10628 10623 10620 10617 10613 10611 10607 10602 10598 10593 10587 10584 10579 10575 10574 10571 10572
10637 10642 10645 10647 10648 10649 10650 10650 10651 10651 10653 10652 10652 10652 10650 10649 10647 10645 10643 10641 10639 10638 10636 10635 10634 10631 10626 10623 10620 10618 10614 10609 10603 10599 10599 10597 10594 10585 10582 10576 10571 10567 10562 10554 10551 10554 10555
10622 10625 10627 10629 10631 10633 10635 10636 10637 10638 10639 10639 10639 10639 10637 10636 10634 10632 10629 10627 10626 10625 10622 10620 10618 10618 10612 10606 10606 10603 10599 10594 10587 10583 10581 10582 10579 10573 10567 10561 10554 10552 10544 10536 10529 10529 10530
10605 10609 10610 10612 10612 10617 10619 10621 10623 10623 10624 10625 10626 10625 10623 10622 10621 10619 10616 10612 10610 10610 10608 10606 10602 10602 10597 10590 10589 10585 10584 10578 10571 10563 10561 10561 10561 10559 10550 10543 10537 10530 10526 10517 10508 10502 10503
10587 10590 10595 10597 10595 10599 10602 10605 10607 10607 10608 10610 10612 10611 10608 10607 10607 10604 10602 10598 10594 10592 10592 10590 10584 10583 10580 10577 10570 10568 10565 10561 10552 10547 10543 10537 10539 10541 10530 10523 10516 10511 10504 10497 10487 10483 10477
10574 10575 10577 10581 10583 10584 10588 10590 10592 10591 10592 10594 10596 10597 10595 10593 10592 10588 10585 10583 10579 10571 10571 10572 10567 10562 10559 10557 10555 10551 10545 10537 10535 10529 10523 10516 10519 10515 10512 10503 10495 10489 10482 10474 10467 10463 10458
10556 10559 10561 10563 10565 10568 10571 10574 10575 10575 10575 10577 10580 10581 10578 10576 10574 10571 10568 10565 10563 10554 10551 10552 10547 10540 10536 10536 10532 10531 10525 10520 10512 10507 10502 10494 10496 10489 10489 10481 10473 10469 10460 10451 10444 10442 10440
10538 10540 10544 10546 10547 10550 10553 10555 10556 10556 10556 10559 10562 10563 10558 10559 10556 10553 10549 10546 10539 10538 10532 10527 10526 10517 10516 10514 10505 10507 10504 10499 10492 10485 10476 10468 10470 10461 10457 10453 10450 10446 10440 10429 10420 10418 10407
10521 10524 10527 10529 10531 10533 10535 10535 10538 10535 10536 10539 10541 10541 10538 10540 10535 10532 10528 10526 10519 10517 10512 10508 10506 10496 10493 10491 10484 10480 10476 10472 10471 10465 10452 10444 10444 10434 10431 10425 10421 10418 10413 10402 10394 10387 10379
10502 10506 10509 10511 10513 10515 10518 10516 10519 10515 10514 10516 10518 10516 10516 10518 10513 10510 10506 10502 10498 10496 10493 10487 10481 10476 10468 10462 10459 10458 10453 10444 10440 10436 10426 10419 10415 10408 10405 10394 10391 10397 10390 10371 10367 10360 10353
10481 10486 10488 10491 10493 10496 10496 10497 10498 10497 10497 10494 10491 10494 10493 10494 10490 10484 10482 10479 10477 10472 10471 10463 10456 10452 10443 10434 10430 10428 10425 10419 10413 10408 10401 10395 10384 10378 10381 10372 10365 10373 10359 10349 10338 10330 10323
10460 10464 10467 10470 10473 10472 10474 10477 10477 10477 10476 10474 10470 10469 10470 10471 10465 10461 10457 10456 10449 10446 10441 10437 10428 10425 10419 10409 10403 10402 10399 10395 10390 10384 10376 10367 10357 10348 10347 10341 10343 10341 10335 10326 10315 10306 10300
10437 10442 10445 10447 10450 10451 10453 10455 10457 10457 10454 10452 10450 10447 10445 10447 10442 10436 10434 10430 10426 10421 10417 10411 10404 10398 10394 10388 10380 10378 10374 10370 10364 10359 10351 10340 10329 10318 10316 10313 10316 10312 10307 10297 10292 10286 10278
10418 10421 10423 10425 10428 10430 10432 10434 10435 10436 10431 10429 10427 10426 10425 10425 10419 10414 10410 10406 10400 10395 10392 10385 10382 10374 10368 10360 10355 10351 10347 10343 10339 10336 10324 10313 10303 10294 10286 10282 10287 10286 10276 10268 10264 10262 10253
10400 10404 10405 10406 10408 10409 10411 10414 10415 10415 10409 10408 10404 10403 10405 10404 10398 10393 10387 10380 10373 10367 10365 10360 10354 10349 10338 10335 10330 10325 10321 10316 10310 10306 10298 10287 10279 10272 10261 10256 10265 10256 10250 10243 10239 10237 10232
10382 10384 10388 10389 10390 10391 10392 10394 10395 10395 10390 10385 10383 10384 10383 10379 10378 10372 10364 10354 10348 10342 10336 10333 10328 10323 10315 10307 10300 10296 10296 10290 10285 10279 10268 10261 10253 10249 10241 10235 10236 10231 10225 10221 10216 10211 10207
10363 10366 10368 10372 10373 10373 10373 10373 10372 10372 10371 10362 10364 10365 10359 10357 10355 10350 10341 10332 10325 10317 10309 10305 10300 10293 10287 10280 10275 10272 10268 10266 10258 10254 10245 10238 10231 10224 10217 10214 10208 10205 10202 10199 10194 10189 10184